Wind_Speed
10 15 16 18 16 10 8 12 13 12 12 11 9 9 9 8 9 8 8 9 8 6 5 7 10 11 14 19 21 23 24 23 21 20 21 23 24 25 26 28 30 32 33 34 35 36 36 37 39 41 42 44 45 46 46 46 44 43 43 43 42 40 39
10 7 10 15 18 14 8 10 12 11 13 12 9 8 8 9 10 7 9 12 11 8 7 9 15 17 16 16 18 20 25 28 26 23 22 23 24 25 26 28 30 32 33 35 36 36 37 40 42 44 45 45 45 46 47 46 45 44 44 43 42 41 40
8 5 9 13 17 20 16 10 10 11 12 11 10 9 9 10 10 8 10 13 11 9 7 5 11 17 18 17 17 17 20 23 27 28 26 25 24 24 25 27 29 30 33 35 36 36 37 39 41 42 43 43 43 45 46 45 44 43 43 43 42 41 41
7 6 10 11 13 18 18 14 11 11 11 10 10 9 8 9 9 8 10 11 9 9 10 8 8 11 14 15 15 16 17 20 24 27 28 28 27 26 25 25 27 29 32 35 36 37 37 38 39 39 40 41 42 43 44 44 43 43 43 43 42 42 41
7 7 10 13 13 14 15 14 13 11 10 10 11 10 10 9 9 7 7 8 7 6 8 11 9 8 10 12 12 13 15 20 23 24 26 27 28 29 27 26 27 29 32 34 36 37 36 36 36 36 38 39 40 40 42 43 43 43 43 43 43 43 42
8 11 13 15 14 11 10 12 15 15 12 11 12 12 13 11 9 8 7 6 4 3 4 8 9 9 10 11 12 12 14 19 21 22 24 25 26 27 28 29 29 29 32 34 35 35 34 34 35 36 37 38 38 39 40 41 41 42 43 43 45 44 43
10 15 14 12 12 11 9 9 13 16 15 13 13 13 13 12 11 10 8 8 4 3 3 4 5 6 7 10 12 12 15 18 20 21 23 24 25 26 27 28 29 29 31 33 33 33 34 35 37 38 38 38 39 40 40 39 41 43 42 42 44 45 44
11 17 19 16 14 12 10 10 11 13 16 17 12 9 8 10 13 12 8 8 7 3 3 3 3 5 6 7 8 9 11 14 17 21 23 24 25 26 26 26 27 28 28 29 30 32 35 37 37 37 38 38 39 39 38 39 40 42 41 40 41 44 44
9 11 14 14 13 10 9 12 14 13 15 15 10 6 5 7 13 15 11 9 7 4 5 6 6 9 10 9 9 9 10 11 12 13 17 21 24 25 25 25 25 26 26 27 30 33 36 37 36 37 38 38 37 38 39 40 39 39 39 38 39 41 43
9 8 6 7 8 6 8 15 18 14 13 14 11 8 8 9 12 14 12 9 7 5 6 7 7 10 11 8 7 6 5 6 5 2 4 9 13 16 17 19 21 22 24 27 31 35 38 38 37 37 39 38 37 38 39 39 37 38 39 38 38 39 41
11 8 6 7 8 7 8 12 14 12 12 13 11 9 10 11 10 12 12 10 9 7 6 6 7 6 4 1 3 4 5 5 3 3 2 2 6 9 12 14 17 19 22 25 29 34 37 37 37 38 39 38 37 38 38 37 36 37 38 38 38 39 40
18 18 16 14 13 13 12 11 11 10 9 10 13 13 14 13 9 11 14 13 13 12 6 1 0 2 5 6 6 7 7 7 6 5 2 1 5 7 10 14 17 20 23 25 28 33 34 34 34 35 36 37 37 37 38 37 36 37 38 38 39 39 39
20 22 21 17 14 14 15 14 14 13 9 10 14 15 18 18 12 11 12 10 13 15 7 4 7 8 8 7 7 8 8 9 9 8 5 3 2 4 8 14 19 22 25 27 30 34 34 33 33 33 33 35 35 35 36 36 36 36 37 38 38 39 40
18 21 22 20 17 17 17 16 16 16 13 13 13 13 16 19 16 14 11 9 9 6 3 8 9 11 10 8 9 10 11 12 13 12 10 9 7 5 3 8 16 22 25 28 31 35 35 34 35 34 33 34 35 35 36 37 37 37 37 38 39 40 41
13 17 20 20 19 18 17 17 17 17 15 15 15 14 15 17 18 17 15 15 10 2 9 11 11 11 11 10 12 12 13 15 16 16 15 14 13 12 10 8 9 16 22 27 30 34 37 38 37 36 35 35 36 36 36 38 38 38 38 40 41 42 42
10 13 17 20 19 18 19 19 18 17 16 14 10 8 9 11 14 16 15 15 10 4 11 11 9 8 9 10 12 14 15 17 18 18 18 18 18 17 15 14 12 13 17 24 28 33 38 39 38 38 37 36 36 36 36 38 38 38 38 39 42 43 42
9 11 15 16 15 15 16 15 15 16 16 10 5 4 4 4 6 10 11 8 4 8 10 9 8 8 7 9 11 13 15 17 18 18 19 20 20 20 19 18 17 17 17 20 27 32 36 38 39 40 40 39 39 39 38 38 37 37 37 38 40 42 41
8 11 13 11 12 13 10 8 11 18 18 11 9 8 7 3 1 3 3 2 7 10 9 9 9 9 9 9 7 9 13 15 18 19 20 21 22 22 21 20 20 20 19 20 25 30 33 36 38 39 39 39 38 37 35 35 36 37 36 36 38 42 43
7 10 10 9 11 10 4 2 3 11 14 13 12 8 4 2 1 2 2 3 7 9 10 11 11 11 12 8 3 10 13 15 18 20 21 22 23 23 23 22 22 22 22 21 24 28 31 33 34 35 35 35 34 33 34 35 36 37 37 36 37 41 43
6 7 8 8 5 3 0 5 9 5 6 13 12 7 5 3 2 1 2 4 7 10 13 13 12 12 12 8 4 13 18 17 18 21 23 24 24 24 24 24 24 25 24 22 23 27 29 30 31 34 35 34 33 33 34 34 35 36 37 37 37 40 43
6 6 8 8 7 6 3 3 8 8 2 2 2 2 4 3 4 3 3 5 8 12 14 15 15 14 11 11 3 15 24 22 20 21 23 24 24 24 24 25 24 24 22 21 21 24 26 28 31 33 34 33 33 33 32 33 34 36 36 38 40 42 42
6 7 7 8 10 9 4 2 8 12 11 11 11 5 3 3 5 5 4 6 9 11 14 17 17 11 10 11 1 18 28 26 24 23 22 21 22 24 25 24 23 21 17 17 19 21 25 28 31 31 32 32 32 32 33 33 34 35 37 40 43 43 41
6 7 6 6 8 4 3 7 10 14 16 15 12 7 4 2 5 6 6 7 9 11 13 16 15 6 7 5 6 22 30 29 28 28 26 22 23 24 23 21 21 18 14 14 17 20 24 28 30 31 32 33 33 33 34 33 34 35 38 41 43 41 39
8 8 6 6 6 1 8 11 13 16 17 13 7 6 5 4 4 6 8 8 9 12 13 13 10 5 2 5 13 24 30 29 28 29 27 24 24 23 21 20 19 14 11 12 17 20 24 28 29 31 32 33 34 35 34 33 34 36 39 40 40 39 38
9 9 7 7 6 2 9 14 14 13 12 7 4 3 1 4 4 6 9 9 10 12 12 10 8 7 9 12 18 24 28 29 29 29 27 23 20 18 18 17 16 11 8 12 17 19 24 28 29 31 33 33 34 35 36 35 35 36 37 38 38 38 38
7 8 7 7 5 3 13 17 12 8 5 3 0 3 3 4 6 6 8 9 11 11 11 10 10 12 14 16 19 22 26 28 29 30 28 25 20 16 13 12 11 8 6 10 15 18 22 28 30 31 33 34 35 37 38 38 37 35 33 34 37 37 36
6 7 6 6 4 6 16 16 9 7 5 3 6 8 4 4 7 7 7 9 11 12 12 12 14 16 17 18 21 23 26 28 29 30 30 28 24 17 12 11 9 6 3 6 11 17 21 24 27 28 31 34 37 38 39 38 34 31 32 34 35 35 34
3 5 4 3 4 10 16 12 4 4 4 6 11 12 8 6 7 9 9 9 10 12 13 14 16 17 18 21 23 24 27 29 31 30 30 29 26 21 16 11 6 2 2 3 5 12 19 22 23 25 29 34 38 38 36 35 32 30 32 34 33 34 33
2 2 2 5 8 12 13 8 5 5 7 11 15 14 11 9 9 10 12 12 12 13 14 15 17 17 19 23 24 24 27 30 32 32 31 30 28 25 20 13 8 5 1 4 4 8 14 19 21 22 25 30 35 35 32 32 32 30 31 33 33 33 32
3 3 3 8 13 14 9 7 10 11 12 15 18 16 14 13 11 11 13 13 13 13 13 15 17 19 21 25 25 25 27 30 33 33 32 30 28 26 23 18 14 9 3 3 6 7 10 13 15 17 19 23 29 31 29 30 31 30 30 32 31 30 29
6 2 3 11 18 15 6 6 13 16 15 17 19 18 16 15 14 14 14 13 13 12 11 13 17 20 22 24 26 26 27 30 33 34 32 31 28 26 24 22 18 14 9 5 6 8 9 10 10 12 14 16 21 27 28 28 29 30 31 31 29 28 28
6 2 7 18 20 10 2 8 16 19 19 20 21 20 18 17 16 14 13 13 12 12 12 13 16 20 21 22 26 27 27 29 31 33 32 30 28 26 24 23 22 18 14 10 8 8 9 10 10 11 12 14 16 22 27 27 27 29 31 30 28 27 27
6 4 10 20 16 5 5 15 19 18 21 22 22 21 19 17 16 14 13 13 12 12 13 13 15 19 21 22 25 26 26 27 30 31 31 29 28 27 23 22 23 22 19 16 13 10 9 8 8 9 11 13 14 19 24 26 26 27 29 28 26 25 25
6 7 12 17 12 6 12 21 20 19 21 22 20 21 20 18 17 16 15 15 14 11 11 11 13 16 19 21 24 25 25 26 28 29 30 29 29 27 21 19 23 25 23 22 19 17 14 10 9 8 8 10 11 14 17 20 22 24 24 25 24 22 22
8 12 17 17 13 12 15 19 20 20 21 20 20 22 21 20 19 17 16 17 16 12 10 11 11 14 17 19 22 24 24 24 26 26 27 29 30 28 22 19 20 23 24 24 23 21 18 15 13 11 10 9 8 8 11 12 15 17 18 20 22 19 17
12 16 19 18 17 17 17 19 20 19 19 20 21 22 21 20 19 17 15 16 16 14 14 13 11 12 14 16 18 21 22 23 23 24 24 26 28 27 25 21 19 20 22 21 20 20 19 17 17 15 14 13 10 8 9 10 11 13 14 16 17 15 14
14 17 19 18 18 18 18 18 18 17 18 21 22 21 20 20 19 17 16 15 14 15 16 16 14 12 12 14 15 17 19 20 21 21 22 23 25 27 26 23 20 20 20 18 17 18 18 17 17 17 15 14 12 8 7 8 9 12 14 14 14 11 10
Wind_Direction
218 219 218 212 219 226 200 199 213 217 220 230 240 245 248 252 250 228 208 216 224 232 233 211 210 217 216 216 219 221 220 217 215 214 211 207 205 203 199 198 200 199 197 196 196 197 195 195 199 202 205 209 212 215 219 221 221 220 219 218 218 219 218
215 239 244 220 219 231 223 204 204 208 221 231 239 242 236 234 240 230 217 225 222 223 233 211 208 215 216 214 216 217 216 216 215 215 212 208 207 205 201 200 201 199 197 197 198 197 196 200 206 209 210 213 214 216 219 221 220 219 219 218 218 218 218
219 226 237 228 222 227 240 241 209 201 213 217 216 230 233 228 234 233 223 229 230 223 222 200 203 211 214 216 218 218 215 213 214 215 213 209 207 205 202 202 202 200 198 198 198 198 198 203 208 209 209 210 212 216 220 222 221 219 218 218 218 219 218
228 225 218 222 215 215 232 251 239 218 216 216 212 219 234 237 240 239 224 221 227 228 227 227 213 203 209 216 220 221 219 215 213 214 214 210 206 206 205 205 205 202 201 201 200 201 199 199 201 201 203 207 210 214 219 221 221 220 219 218 217 217 217
225 233 218 221 220 207 211 227 233 224 216 218 220 220 225 236 243 242 231 224 224 214 216 224 218 201 206 217 223 224 222 220 216 212 212 210 207 208 209 209 209 206 204 203 202 202 199 197 197 195 198 203 206 210 215 217 218 218 218 217 217 217 217
233 229 217 222 236 233 222 222 220 219 218 217 219 219 217 224 240 243 240 241 226 147 173 209 211 212 216 219 224 228 223 222 220 213 209 209 208 208 208 211 213 211 207 203 201 200 196 194 194 194 196 198 200 205 209 212 213 214 214 215 217 218 217
260 260 255 259 272 278 278 258 228 218 220 220 219 222 218 219 230 236 244 249 234 120 123 174 193 211 224 225 227 231 226 221 219 215 211 209 207 205 207 212 215 212 206 202 199 196 193 193 194 194 194 195 199 202 204 205 209 212 211 211 214 217 218
265 271 271 271 272 272 266 254 236 222 220 220 225 240 243 232 225 221 227 238 234 204 181 209 240 248 249 244 241 243 239 228 218 213 211 207 203 203 208 213 214 210 204 199 196 193 192 193 194 193 194 195 198 198 198 201 206 208 207 205 209 215 219
239 242 248 242 237 246 250 233 227 229 228 227 234 260 270 248 233 229 226 224 226 221 207 216 243 255 253 247 245 249 251 248 236 217 207 204 201 202 209 213 211 206 200 195 193 191 192 193 193 193 194 196 196 196 198 201 202 202 201 201 203 211 217
227 213 224 233 227 242 251 231 226 231 235 236 238 239 235 230 233 237 235 228 220 194 183 199 224 248 251 244 245 257 260 260 258 215 179 196 199 204 213 215 211 204 198 194 191 190 192 193 192 193 194 195 195 196 198 199 198 197 198 198 199 205 213
257 267 294 310 310 302 269 238 232 234 233 235 240 238 231 226 229 234 234 245 243 210 187 202 213 235 261 313 22 12 19 25 41 72 90 172 199 211 217 215 210 203 199 196 192 193 195 195 193 194 195 195 195 196 196 196 196 195 195 196 197 201 208
266 277 286 291 296 293 282 272 264 252 235 233 234 233 232 230 236 233 225 235 246 234 221 238 323 12 22 34 26 15 14 15 23 31 24 200 203 211 211 208 204 199 199 197 194 196 198 196 194 195 196 196 195 195 195 194 194 194 194 195 196 200 205
265 273 278 278 278 276 274 276 275 268 259 245 235 233 232 228 234 240 227 230 242 239 245 5 11 1 8 25 18 8 10 9 7 2 348 326 249 217 208 205 202 200 200 197 197 202 202 197 196 197 196 196 195 195 194 193 193 194 194 194 195 198 204
267 268 272 273 271 268 265 265 265 265 265 254 240 235 231 227 232 239 244 265 264 247 339 2 351 344 350 6 11 9 10 5 358 352 347 348 347 332 281 222 210 207 205 202 203 208 207 200 197 197 197 196 195 195 194 193 193 193 193 194 196 199 206
270 267 272 271 263 259 261 261 260 260 260 252 239 231 225 225 229 229 237 256 259 28 25 348 332 340 344 354 4 8 7 0 352 348 346 345 344 338 332 310 252 225 216 210 208 211 214 210 202 198 197 197 197 196 194 193 193 192 193 196 200 204 208
272 268 269 265 259 256 254 253 251 251 250 244 235 230 225 228 231 223 221 236 245 354 7 339 324 330 333 346 358 360 360 355 350 345 341 337 335 331 327 321 304 271 240 222 212 213 218 215 206 201 198 197 196 196 195 194 193 192 193 197 202 207 209
279 275 267 261 256 251 246 243 238 238 240 225 164 155 209 229 243 228 218 227 288 346 349 337 330 328 329 346 356 358 357 351 346 343 337 331 328 326 322 316 307 293 270 242 223 216 216 212 207 205 202 199 199 198 196 194 191 191 193 195 202 207 208
272 278 281 269 248 238 238 240 228 225 224 198 151 160 189 178 312 267 243 332 349 347 340 328 323 322 318 324 355 18 12 357 346 339 334 327 323 320 317 312 305 297 283 260 235 222 217 213 209 206 203 202 201 197 193 191 190 191 192 192 200 208 211
261 279 285 263 241 235 227 15 290 238 210 169 140 138 144 120 4 318 315 336 337 337 330 318 309 304 297 293 17 37 20 6 351 337 330 325 320 314 311 308 305 299 287 267 243 227 220 214 207 201 199 199 196 191 191 191 190 191 191 191 199 209 213
248 264 257 242 251 276 188 51 16 345 166 144 133 123 103 62 25 358 328 340 344 335 327 319 310 300 282 246 102 35 14 4 353 338 328 323 315 309 307 304 301 296 285 267 246 230 221 213 203 198 197 194 192 190 190 190 189 190 191 193 200 209 214
232 243 248 253 272 275 224 98 22 359 13 155 238 172 108 55 24 19 359 4 356 338 332 329 318 305 275 227 156 24 5 355 349 336 326 323 317 309 305 300 297 294 282 263 244 228 217 208 201 198 195 191 189 190 189 189 188 189 192 197 204 212 216
229 239 253 264 261 247 205 77 3 346 340 323 302 273 148 77 22 19 18 20 7 347 340 338 327 304 249 218 189 7 354 348 348 338 329 329 323 312 305 301 301 299 282 254 234 218 209 203 199 195 191 187 186 186 187 188 188 188 194 203 210 216 219
227 234 243 254 254 249 49 17 346 339 335 327 307 264 189 107 31 25 31 31 18 359 348 348 344 313 229 215 2 351 340 341 345 336 331 336 328 314 307 306 305 302 284 248 224 210 203 197 193 190 186 184 184 184 185 187 187 190 199 208 215 219 219
232 238 242 256 260 7 35 0 339 334 327 318 286 231 180 106 49 34 39 37 23 6 356 359 10 18 355 331 337 335 332 335 340 338 337 339 331 318 314 312 307 301 278 236 212 202 198 193 188 185 182 181 183 184 184 185 189 197 208 215 218 219 217
237 236 239 267 268 41 25 350 341 341 322 290 233 217 96 68 53 43 40 34 24 12 7 11 12 1 347 327 319 325 330 333 341 348 352 349 338 325 320 318 312 302 266 224 209 201 195 189 184 181 181 182 184 185 185 189 197 205 212 217 219 218 216
240 236 244 268 263 40 10 346 348 5 334 258 245 351 4 38 36 36 34 27 19 9 5 7 350 332 332 329 324 325 328 332 340 349 356 359 355 344 337 333 325 309 261 222 214 204 193 187 185 184 184 184 185 189 194 201 206 206 208 214 218 217 215
238 234 245 258 248 7 357 348 3 33 19 338 339 336 342 28 16 11 17 20 14 2 353 347 337 329 330 331 328 326 330 338 343 347 355 4 7 6 3 352 339 321 281 232 213 202 193 189 188 187 185 185 190 197 204 206 204 201 205 214 217 215 212
254 231 244 278 293 335 343 344 7 33 15 348 334 330 335 352 351 348 352 357 359 357 349 337 332 331 330 328 328 328 333 341 344 349 2 11 14 18 19 9 4 8 288 262 203 191 190 187 186 185 185 190 198 203 204 203 199 198 206 213 214 212 211
309 241 325 344 335 335 342 359 17 5 358 349 337 328 323 324 333 338 335 332 338 345 344 335 329 329 329 329 329 329 332 340 346 354 5 10 12 21 30 35 50 58 303 230 175 168 179 181 183 185 187 196 202 202 201 204 202 199 204 211 213 212 210
303 255 317 350 344 338 346 27 24 8 360 349 339 330 321 317 320 324 322 322 325 329 335 334 328 326 328 329 328 328 332 341 350 357 4 8 15 27 37 43 52 57 58 192 173 159 164 171 180 186 188 198 204 203 203 206 205 201 205 211 212 210 209
318 280 2 354 340 326 321 17 6 354 349 344 336 328 319 312 310 311 313 315 316 317 322 326 323 322 325 327 328 330 334 341 350 356 1 7 17 28 34 37 45 59 73 112 157 160 156 158 167 178 183 190 199 204 207 208 205 203 208 212 211 209 208
327 332 357 346 337 325 344 10 353 342 338 336 332 325 319 311 306 306 308 310 311 314 317 321 320 319 322 327 330 331 334 339 348 355 358 3 16 29 37 41 44 51 65 87 120 147 156 159 159 166 174 178 187 201 208 210 209 208 210 212 212 210 208
334 351 351 346 344 353 2 350 343 336 332 331 327 323 319 313 308 308 310 309 307 308 313 318 319 317 320 328 332 331 332 337 346 355 359 4 16 26 33 44 47 49 56 69 83 102 126 148 158 165 178 187 194 203 208 211 212 213 215 216 215 212 208
348 348 345 345 342 322 325 332 332 330 329 327 323 322 319 315 313 313 313 311 307 302 308 316 318 316 320 328 332 330 331 337 346 356 1 6 15 23 34 49 55 55 60 65 70 80 95 113 128 138 159 181 194 203 208 213 215 214 215 215 213 210 207
329 334 338 339 330 313 315 324 328 328 327 325 323 321 317 314 314 313 311 312 309 303 304 310 313 313 318 326 330 329 331 339 349 358 3 4 9 19 35 50 54 55 61 64 66 70 77 88 98 110 125 135 149 174 188 197 204 206 208 208 205 201 199
323 332 337 335 327 319 320 327 330 328 326 325 323 319 316 314 313 311 308 307 306 303 302 301 301 306 314 321 326 327 332 341 350 357 1 0 2 15 33 46 53 55 54 53 57 62 65 73 82 93 108 116 122 146 164 168 177 185 191 196 195 191 193
331 333 335 331 326 324 327 332 331 327 327 327 323 318 316 314 310 308 305 301 299 301 298 293 292 298 306 311 318 324 330 338 348 355 357 355 360 14 33 47 56 56 48 43 51 60 60 62 71 81 92 106 113 122 143 161 173 180 181 181 179 180 198
Height
1450 1452 1450 1448 1453 1455 1452 1456 1461 1458 1452 1454 1462 1463 1454 1455 1467 1458 1448 1451 1446 1441 1440 1432 1433 1435 1432 1435 1436 1437 1441 1442 1444 1447 1448 1451 1454 1457 1461 1463 1466 1469 1472 1475 1477 1481 1484 1487 1490 1493 1496 1499 1502 1505 1508 1512 1517 1521 1524 1527 1531 1535 1538
1452 1452 1452 1447 1447 1447 1447 1452 1453 1450 1452 1453 1458 1467 1465 1465 1473 1459 1444 1448 1447 1449 1447 1431 1430 1436 1433 1431 1431 1432 1434 1437 1440 1442 1445 1448 1450 1453 1457 1459 1462 1465 1467 1470 1473 1476 1479 1481 1484 1487 1491 1495 1499 1502 1505 1508 1512 1516 1519 1524 1528 1531 1534
1455 1453 1457 1455 1448 1446 1445 1443 1441 1446 1458 1461 1459 1467 1469 1468 1470 1460 1448 1445 1442 1443 1440 1429 1428 1432 1430 1429 1429 1428 1429 1430 1433 1437 1440 1444 1447 1450 1453 1455 1458 1461 1463 1466 1468 1472 1474 1477 1480 1483 1488 1492 1495 1499 1502 1505 1509 1512 1516 1521 1524 1528 1531
1457 1456 1457 1457 1452 1447 1446 1443 1439 1438 1445 1452 1453 1456 1459 1460 1463 1459 1451 1447 1441 1434 1427 1424 1426 1425 1425 1427 1426 1425 1424 1424 1427 1431 1434 1439 1442 1446 1449 1451 1454 1456 1459 1461 1463 1466 1470 1473 1477 1480 1485 1488 1491 1495 1498 1502 1506 1510 1514 1517 1520 1524 1527
1461 1460 1453 1450 1447 1444 1446 1448 1446 1441 1438 1440 1444 1446 1446 1450 1456 1455 1453 1451 1437 1421 1415 1417 1420 1420 1421 1423 1422 1422 1421 1421 1423 1426 1429 1434 1437 1441 1444 1447 1450 1452 1454 1456 1459 1462 1466 1470 1474 1477 1481 1484 1488 1492 1494 1498 1502 1506 1509 1513 1516 1520 1523
1462 1456 1445 1442 1441 1439 1441 1443 1441 1440 1439 1440 1449 1450 1439 1438 1446 1446 1449 1451 1432 1411 1409 1413 1414 1416 1416 1416 1418 1419 1418 1419 1420 1422 1426 1430 1433 1436 1440 1443 1446 1448 1449 1452 1455 1459 1463 1468 1471 1473 1477 1480 1484 1487 1490 1495 1498 1501 1505 1508 1512 1515 1519
1462 1451 1442 1443 1443 1441 1442 1440 1434 1434 1435 1436 1445 1449 1438 1434 1440 1437 1441 1448 1432 1410 1407 1411 1410 1412 1412 1412 1414 1414 1415 1417 1418 1420 1423 1426 1429 1433 1435 1438 1441 1443 1445 1448 1452 1456 1459 1463 1465 1468 1472 1475 1479 1482 1486 1491 1494 1497 1501 1504 1508 1511 1514
1463 1455 1447 1444 1444 1443 1444 1439 1432 1430 1431 1428 1432 1437 1434 1433 1434 1434 1444 1452 1435 1412 1408 1411 1410 1410 1410 1411 1412 1413 1413 1414 1415 1417 1420 1423 1427 1429 1432 1434 1437 1439 1442 1445 1449 1453 1455 1458 1461 1464 1468 1471 1474 1478 1483 1486 1489 1493 1497 1501 1505 1507 1510
1469 1461 1454 1448 1445 1444 1442 1435 1431 1429 1428 1428 1433 1436 1438 1439 1432 1427 1440 1448 1432 1412 1409 1411 1411 1411 1411 1410 1411 1413 1413 1413 1413 1414 1416 1420 1424 1426 1429 1431 1433 1437 1440 1442 1445 1448 1451 1454 1458 1461 1464 1467 1471 1474 1478 1481 1485 1490 1494 1498 1501 1503 1506
1471 1463 1463 1459 1452 1450 1443 1433 1431 1433 1432 1434 1436 1437 1442 1445 1437 1428 1431 1433 1421 1411 1411 1413 1413 1412 1410 1409 1409 1411 1413 1414 1415 1416 1418 1420 1423 1425 1428 1429 1432 1435 1437 1439 1441 1444 1446 1450 1453 1456 1459 1463 1467 1470 1474 1478 1482 1486 1490 1494 1497 1499 1502
1473 1466 1470 1467 1461 1460 1453 1441 1437 1437 1436 1435 1435 1438 1440 1439 1438 1435 1429 1425 1421 1415 1413 1413 1412 1411 1411 1411 1411 1413 1415 1417 1418 1419 1421 1422 1423 1425 1427 1429 1431 1434 1436 1438 1439 1441 1443 1446 1449 1452 1455 1459 1463 1466 1470 1474 1479 1483 1486 1490 1493 1496 1498
1477 1470 1471 1469 1466 1466 1460 1453 1450 1443 1439 1438 1437 1438 1436 1432 1440 1441 1427 1424 1427 1419 1412 1413 1414 1414 1416 1416 1416 1417 1418 1418 1419 1420 1421 1422 1423 1424 1425 1427 1429 1431 1433 1435 1437 1439 1441 1444 1448 1450 1452 1456 1459 1462 1466 1470 1475 1479 1482 1485 1488 1491 1495
1478 1471 1468 1467 1467 1465 1459 1458 1456 1448 1444 1442 1439 1437 1431 1429 1439 1438 1426 1426 1428 1418 1413 1417 1417 1416 1417 1417 1418 1419 1418 1419 1420 1420 1421 1421 1421 1423 1424 1425 1427 1428 1430 1432 1433 1435 1438 1442 1445 1448 1451 1454 1457 1460 1463 1467 1471 1475 1478 1481 1485 1488 1491
1478 1472 1468 1465 1465 1463 1458 1455 1453 1448 1445 1442 1438 1436 1431 1429 1433 1431 1426 1429 1427 1419 1419 1421 1419 1417 1416 1416 1417 1418 1418 1419 1420 1420 1420 1420 1421 1423 1424 1425 1426 1427 1428 1429 1430 1432 1435 1438 1441 1444 1448 1451 1453 1456 1459 1463 1467 1471 1474 1477 1480 1483 1486
1479 1473 1468 1463 1460 1458 1456 1453 1449 1446 1444 1440 1436 1433 1430 1430 1430 1429 1431 1433 1426 1421 1423 1423 1420 1418 1416 1416 1417 1418 1419 1420 1420 1420 1419 1419 1421 1422 1423 1424 1425 1426 1427 1427 1428 1429 1431 1434 1437 1440 1443 1446 1449 1453 1456 1459 1462 1466 1470 1472 1475 1479 1482
1479 1472 1468 1461 1454 1452 1451 1449 1446 1444 1441 1438 1435 1432 1430 1430 1430 1430 1434 1433 1427 1425 1428 1426 1422 1420 1418 1418 1418 1419 1421 1422 1422 1421 1420 1420 1420 1421 1421 1422 1423 1424 1425 1426 1426 1426 1427 1429 1433 1436 1439 1442 1446 1449 1452 1455 1459 1463 1466 1468 1471 1475 1479
1479 1471 1466 1459 1455 1456 1450 1440 1438 1439 1436 1434 1437 1438 1436 1435 1435 1436 1435 1433 1431 1433 1434 1431 1427 1424 1422 1422 1423 1424 1424 1425 1424 1424 1422 1421 1420 1420 1420 1420 1420 1421 1422 1423 1423 1422 1423 1425 1428 1431 1434 1437 1440 1443 1447 1451 1455 1459 1462 1465 1468 1471 1476
1482 1473 1466 1463 1464 1461 1444 1428 1426 1429 1429 1433 1440 1442 1440 1439 1439 1439 1436 1436 1438 1439 1438 1435 1433 1430 1428 1427 1428 1429 1428 1428 1427 1425 1424 1423 1421 1420 1419 1419 1418 1418 1418 1419 1419 1420 1420 1422 1424 1427 1430 1433 1436 1441 1445 1449 1453 1456 1459 1462 1465 1468 1471
1482 1474 1472 1474 1467 1450 1433 1426 1426 1424 1423 1430 1440 1442 1442 1442 1442 1441 1439 1440 1441 1441 1440 1437 1435 1433 1431 1430 1431 1431 1430 1430 1429 1427 1426 1424 1422 1421 1419 1418 1417 1415 1414 1414 1415 1416 1417 1419 1422 1426 1429 1432 1435 1440 1443 1446 1450 1453 1456 1459 1462 1464 1468
1481 1478 1478 1473 1457 1441 1434 1435 1435 1432 1429 1433 1440 1446 1448 1446 1445 1444 1443 1443 1443 1442 1440 1437 1434 1433 1431 1430 1431 1431 1430 1429 1429 1428 1427 1425 1422 1420 1418 1417 1415 1413 1411 1410 1411 1413 1415 1417 1420 1422 1425 1429 1433 1436 1440 1443 1446 1450 1453 1456 1459 1461 1464
1480 1478 1473 1464 1451 1445 1446 1447 1447 1446 1444 1442 1443 1449 1451 1448 1446 1446 1446 1445 1445 1443 1440 1437 1433 1431 1429 1427 1428 1429 1429 1429 1428 1427 1426 1424 1420 1418 1416 1415 1413 1411 1408 1407 1407 1409 1412 1415 1418 1419 1422 1426 1429 1433 1437 1440 1443 1446 1449 1452 1455 1457 1460
1476 1477 1476 1469 1458 1451 1450 1452 1453 1453 1451 1448 1446 1448 1450 1449 1448 1447 1446 1446 1446 1444 1441 1437 1432 1429 1426 1425 1426 1428 1430 1429 1427 1425 1423 1420 1417 1415 1414 1412 1409 1407 1405 1404 1404 1406 1408 1411 1414 1417 1420 1423 1426 1430 1434 1437 1440 1443 1445 1448 1451 1453 1456
1475 1477 1478 1473 1461 1452 1452 1455 1455 1454 1452 1451 1449 1446 1447 1449 1449 1448 1447 1447 1448 1447 1444 1439 1433 1428 1425 1425 1429 1433 1432 1428 1426 1424 1421 1417 1415 1413 1411 1409 1406 1404 1402 1402 1402 1404 1406 1408 1411 1414 1417 1420 1423 1427 1430 1433 1436 1439 1441 1444 1447 1450 1453
1474 1475 1476 1468 1455 1451 1456 1458 1455 1455 1455 1454 1451 1447 1445 1448 1450 1449 1448 1448 1448 1448 1446 1442 1439 1436 1435 1436 1437 1437 1434 1430 1427 1425 1421 1416 1413 1411 1409 1406 1403 1401 1400 1400 1400 1402 1404 1406 1409 1411 1414 1417 1420 1423 1426 1430 1433 1435 1437 1440 1444 1447 1451
1471 1473 1474 1466 1453 1452 1457 1458 1456 1457 1455 1452 1450 1449 1449 1451 1451 1450 1450 1450 1449 1448 1447 1445 1444 1444 1445 1444 1441 1438 1435 1431 1427 1423 1420 1416 1413 1411 1408 1404 1401 1400 1399 1399 1400 1401 1403 1405 1407 1410 1412 1415 1417 1419 1423 1427 1429 1432 1435 1439 1442 1446 1449
1468 1470 1472 1466 1457 1456 1460 1459 1456 1456 1455 1453 1454 1455 1455 1455 1452 1451 1451 1450 1449 1449 1447 1447 1447 1446 1445 1443 1441 1438 1436 1432 1427 1423 1419 1415 1412 1410 1407 1404 1402 1400 1399 1398 1399 1401 1402 1404 1406 1408 1410 1412 1414 1416 1419 1422 1425 1430 1434 1437 1440 1443 1446
1469 1469 1471 1469 1463 1460 1461 1460 1458 1458 1460 1462 1462 1460 1457 1455 1453 1453 1452 1451 1450 1449 1448 1447 1447 1445 1443 1442 1440 1438 1435 1432 1428 1423 1419 1415 1411 1408 1405 1404 1402 1400 1398 1398 1398 1400 1402 1404 1406 1407 1409 1410 1411 1413 1416 1419 1424 1429 1432 1435 1438 1441 1444
1473 1470 1471 1471 1468 1465 1464 1463 1463 1464 1466 1467 1466 1462 1458 1455 1455 1454 1453 1451 1451 1450 1448 1447 1446 1444 1443 1441 1439 1437 1434 1430 1426 1422 1417 1414 1410 1407 1404 1402 1401 1400 1399 1398 1398 1400 1401 1403 1405 1407 1408 1409 1410 1412 1415 1419 1424 1428 1430 1433 1436 1439 1441
1477 1475 1473 1472 1470 1468 1466 1465 1465 1466 1467 1466 1465 1463 1460 1457 1455 1455 1454 1452 1451 1449 1448 1447 1445 1444 1443 1441 1438 1436 1433 1428 1425 1420 1416 1413 1410 1406 1403 1401 1400 1399 1399 1400 1399 1400 1401 1403 1405 1406 1408 1409 1410 1413 1416 1419 1423 1426 1429 1431 1434 1437 1440
1477 1476 1474 1471 1469 1468 1467 1466 1466 1466 1466 1466 1465 1463 1460 1458 1456 1455 1454 1452 1450 1449 1448 1447 1445 1444 1443 1440 1438 1435 1432 1428 1424 1419 1415 1412 1409 1405 1402 1400 1399 1399 1400 1401 1401 1400 1401 1403 1404 1406 1408 1409 1411 1414 1417 1419 1422 1425 1428 1430 1433 1436 1439
1476 1473 1471 1470 1468 1466 1466 1465 1465 1465 1465 1465 1465 1463 1460 1458 1456 1455 1453 1452 1450 1449 1448 1447 1445 1443 1442 1440 1437 1434 1431 1428 1423 1419 1415 1411 1408 1405 1403 1401 1400 1399 1400 1401 1401 1401 1402 1402 1404 1406 1408 1409 1412 1414 1416 1419 1422 1425 1427 1429 1432 1435 1438
1475 1473 1471 1470 1467 1464 1464 1465 1465 1465 1464 1464 1463 1462 1460 1458 1456 1454 1453 1451 1450 1448 1447 1446 1444 1442 1441 1440 1437 1434 1431 1428 1424 1421 1417 1413 1408 1405 1403 1401 1400 1400 1401 1401 1401 1402 1402 1403 1404 1406 1407 1409 1411 1413 1416 1419 1422 1424 1426 1429 1431 1434 1437
1474 1472 1471 1470 1466 1463 1463 1464 1465 1464 1463 1462 1461 1460 1459 1457 1455 1453 1451 1450 1449 1447 1445 1444 1443 1441 1440 1439 1437 1434 1431 1429 1426 1422 1418 1414 1410 1407 1405 1403 1401 1401 1401 1401 1402 1402 1402 1403 1404 1405 1407 1409 1411 1413 1416 1419 1421 1424 1426 1428 1431 1434 1437
1476 1475 1474 1473 1471 1467 1465 1464 1464 1463 1462 1461 1459 1458 1456 1455 1453 1451 1450 1448 1447 1446 1444 1443 1443 1442 1440 1438 1437 1434 1431 1429 1426 1422 1419 1416 1412 1409 1408 1405 1402 1401 1401 1401 1402 1403 1403 1404 1404 1405 1406 1409 1411 1414 1417 1419 1421 1423 1425 1428 1431 1433 1436
1479 1477 1476 1475 1473 1470 1467 1465 1464 1462 1461 1459 1458 1456 1454 1452 1451 1449 1448 1446 1445 1443 1442 1442 1442 1441 1439 1438 1436 1435 1432 1429 1426 1423 1420 1417 1414 1412 1409 1407 1404 1403 1402 1402 1402 1403 1404 1405 1405 1406 1408 1410 1413 1415 1417 1418 1420 1422 1424 1427 1429 1432 1435
1479 1477 1476 1474 1472 1470 1467 1465 1464 1462 1460 1458 1456 1454 1452 1450 1449 1448 1447 1445 1443 1441 1439 1439 1440 1440 1439 1438 1437 1435 1432 1429 1427 1425 1422 1420 1418 1415 1411 1409 1407 1405 1404 1404 1405 1405 1405 1406 1407 1408 1409 1411 1413 1415 1417 1419 1420 1422 1424 1427 1429 1431 1434
1479 1477 1475 1473 1471 1469 1466 1465 1463 1461 1460 1457 1454 1452 1450 1449 1448 1447 1446 1444 1442 1440 1439 1438 1438 1438 1438 1438 1438 1436 1433 1431 1429 1426 1424 1422 1420 1416 1412 1410 1409 1408 1407 1408 1408 1408 1408 1408 1409 1409 1410 1411 1413 1415 1417 1419 1420 1422 1424 1426 1428 1431 1433